Theta_e
325 325 324 324 324 325 325 324 324 324 324 323 321 321 321 322 322 312 302 309 313 326 318 305 305 304 304 302 302 299 292 289 291 292 294 295 296 298 300 300 302 307 308 312 326
325 324 324 325 325 325 324 324 324 323 322 323 322 321 321 322 307 303 315 323 326 328 305 302 301 301 299 299 299 296 291 292 294 293 294 295 296 297 298 299 300 303 311 322 328
324 324 324 325 324 323 324 323 323 322 321 321 321 321 321 316 300 299 323 326 328 319 305 303 302 301 297 298 297 295 293 294 294 295 296 296 295 297 297 296 299 301 307 321 324
322 322 323 323 323 324 323 323 322 321 321 320 321 321 320 309 288 305 325 324 324 307 304 301 300 297 295 294 295 293 294 294 296 296 296 296 296 295 296 299 299 301 311 321 322
321 321 321 322 322 324 323 322 321 320 320 320 320 321 309 296 297 308 322 319 307 305 301 300 297 296 293 293 294 292 292 294 295 295 295 296 294 295 295 297 299 301 315 321 323
320 319 320 320 321 323 323 322 321 320 320 320 321 321 300 290 303 310 308 305 303 302 300 300 298 298 294 293 291 293 293 293 294 293 294 293 291 294 294 294 297 305 311 317 321
320 319 319 319 320 321 322 322 321 320 320 320 321 311 297 294 306 307 306 303 304 302 300 300 300 298 296 293 295 293 291 291 292 293 293 293 290 292 294 293 294 298 305 312 316
319 318 318 319 320 321 321 321 321 320 320 320 321 305 292 303 304 304 303 302 303 303 302 302 302 299 296 295 293 290 289 286 289 292 292 291 287 289 293 293 293 293 295 303 312
318 318 318 318 319 319 320 321 320 320 320 321 304 295 290 309 301 303 302 301 301 301 302 303 300 295 294 290 287 287 283 284 287 292 292 289 287 290 293 292 291 293 293 293 296
318 317 318 319 319 319 320 320 320 319 317 314 306 293 293 295 301 300 300 302 299 299 299 297 293 290 288 287 283 284 283 283 284 289 290 288 289 291 292 291 293 292 293 293 293
318 317 318 319 319 320 318 313 304 299 301 293 294 291 294 300 301 298 300 298 297 295 290 291 289 286 287 288 287 287 285 284 285 290 289 287 288 290 292 292 292 293 293 292 293
318 318 318 319 319 320 313 303 300 300 293 302 301 299 300 301 295 296 299 293 292 287 289 289 285 290 291 289 288 286 285 284 286 289 289 286 288 290 290 292 292 292 292 292 292
318 318 318 318 318 316 308 305 312 308 291 295 301 298 299 300 294 295 297 292 289 287 287 285 288 291 290 287 286 284 284 284 284 286 286 284 285 287 287 289 290 291 292 292 292
317 317 318 318 312 310 307 312 313 310 288 290 294 296 299 299 292 298 297 293 287 286 286 286 288 288 287 285 287 283 287 287 286 284 281 284 279 283 285 287 288 292 291 291 292
317 317 317 316 306 306 307 313 314 301 277 291 292 301 299 293 293 293 297 292 287 286 287 284 286 286 285 286 288 285 287 286 284 283 282 281 280 283 284 286 287 291 292 292 292
317 317 316 311 307 308 312 313 305 286 275 288 293 292 293 292 292 293 294 293 291 288 285 285 288 287 287 287 287 288 286 285 283 281 278 281 281 280 283 285 288 291 291 292 293
316 316 314 310 302 312 312 302 283 278 287 287 288 290 289 288 290 290 289 286 284 281 279 285 285 287 289 286 288 285 284 278 277 276 277 279 279 282 285 287 290 291 291 291 292
315 315 312 310 312 312 306 291 277 282 283 291 290 289 287 289 287 289 288 286 287 283 280 279 278 286 288 287 285 283 284 279 273 273 276 281 278 283 287 291 291 292 291 291 291
315 312 309 309 313 310 299 283 282 284 288 290 289 286 285 287 287 287 287 287 289 286 282 279 279 287 287 288 290 284 281 284 279 271 275 279 282 287 289 289 290 290 290 290 290
302 302 303 308 313 306 293 285 286 289 292 291 284 286 282 284 285 283 284 287 286 289 287 286 280 286 287 289 288 286 287 281 279 271 271 276 278 281 286 287 288 288 289 289 290
299 293 302 307 307 297 285 287 289 294 295 290 287 285 284 284 285 284 284 287 289 288 289 287 285 283 287 285 283 284 282 283 282 280 275 272 277 284 289 290 289 289 289 289 289
296 286 301 306 291 290 286 290 294 293 294 292 290 289 286 286 284 284 285 287 290 291 288 287 285 281 283 286 289 286 284 284 279 277 278 277 279 288 289 290 290 289 289 288 288
291 291 301 300 283 284 286 291 293 292 292 292 290 291 291 288 285 287 287 290 290 291 289 289 283 274 279 283 285 285 285 283 283 282 277 276 281 288 288 289 290 289 288 287 287
291 286 291 291 290 288 286 288 288 294 292 293 292 293 291 289 291 287 287 291 292 290 296 294 285 284 279 282 285 284 285 285 285 278 282 281 284 285 286 287 287 288 287 287 287
287 285 287 284 286 289 290 289 287 287 292 293 290 292 291 287 287 287 290 292 293 295 293 291 281 282 283 285 284 284 284 284 284 286 281 285 282 286 288 289 289 288 287 287 287
285 283 286 286 291 288 288 286 287 287 291 289 287 291 292 289 289 287 290 291 290 293 291 292 281 282 278 284 285 281 284 286 287 287 286 282 283 288 292 289 287 288 288 287 287
288 287 285 284 288 287 286 287 288 289 290 292 292 291 290 292 294 293 295 295 294 292 290 289 283 280 281 282 283 281 285 284 286 288 288 284 289 290 288 290 288 288 288 287 287
Wind_Speed
15 15 14 14 12 12 12 11 10 10 9 10 8 7 4 2 1 2 3 7 5 6 4 2 3 3 4 3 3 3 5 3 6 6 3 3 4 2 1 5 2 5 4 1 9
16 14 14 14 13 12 12 11 10 8 7 8 7 5 5 3 2 5 8 7 7 7 5 5 4 4 4 3 3 5 4 8 6 4 5 6 2 6 4 3 3 1 1 4 13
16 15 12 13 12 12 11 10 8 7 6 5 4 6 5 2 2 7 3 9 8 8 5 3 3 3 4 3 0 3 5 4 4 3 6 7 3 3 6 3 6 8 6 10 11
15 15 14 11 11 11 11 9 8 7 6 6 5 4 5 0 7 1 1 7 8 6 6 6 3 3 5 6 1 5 2 4 4 3 5 8 6 4 5 4 4 5 6 11 16
15 14 13 13 12 11 10 9 9 8 6 6 5 4 3 3 7 2 5 7 6 6 6 5 5 4 6 5 5 3 3 4 3 5 5 7 3 3 5 5 3 4 8 13 13
16 16 15 12 13 11 10 9 8 8 7 6 6 4 2 5 1 5 8 4 5 4 3 4 7 5 5 4 3 4 3 4 3 2 2 3 2 0 3 2 4 5 8 8 11
16 15 14 13 12 13 10 9 9 7 6 5 5 3 1 9 2 5 7 3 4 5 6 3 6 4 5 5 3 6 4 3 3 2 2 0 2 7 3 3 5 6 5 7 7
19 18 17 15 14 13 11 9 8 7 6 4 4 2 6 2 1 3 4 4 1 1 5 4 6 8 5 4 7 5 6 4 1 2 2 3 8 1 5 3 6 6 5 7 8
18 19 18 16 15 16 13 10 8 7 4 5 2 4 6 2 2 2 3 7 4 3 6 4 7 5 4 6 5 7 4 3 2 0 2 2 6 1 0 3 4 6 5 6 7
19 21 19 17 17 17 15 13 8 6 3 1 1 3 0 4 2 2 2 5 6 4 5 6 6 5 4 4 6 4 4 2 4 2 2 1 10 6 4 2 5 6 7 6 8
19 19 20 18 18 20 16 8 5 2 0 6 6 3 3 1 2 1 1 5 4 9 5 3 5 7 6 6 5 6 3 4 3 1 3 5 8 10 6 5 8 8 7 7 8
22 20 21 22 21 20 7 4 5 7 4 4 1 2 2 5 5 2 4 6 5 5 4 5 2 4 7 7 6 3 4 3 1 2 4 2 10 9 5 7 6 4 6 7 5
25 23 22 21 20 13 6 4 3 3 5 3 4 4 4 6 6 9 7 5 6 8 6 8 4 8 7 5 8 4 7 4 2 2 3 3 8 6 2 3 2 4 2 3 4
25 27 26 23 12 11 7 2 1 1 4 4 5 6 4 6 2 2 4 5 3 8 8 5 3 7 5 4 5 5 6 5 6 4 3 2 6 7 3 5 1 4 5 5 5
29 29 29 25 8 12 7 5 1 5 4 5 5 1 4 8 7 3 2 5 10 8 8 6 9 8 4 8 8 5 6 6 4 4 3 2 1 9 2 6 5 3 4 4 4
31 31 31 11 4 8 10 8 3 6 10 5 5 9 7 3 2 4 4 6 5 6 5 3 0 4 7 4 5 10 8 8 5 4 2 5 6 6 5 6 4 3 3 4 4
32 32 28 11 10 13 14 6 6 7 3 7 7 6 6 6 5 4 8 7 8 7 3 3 1 2 5 9 6 4 7 3 2 1 6 2 1 9 4 3 1 7 5 4 4
34 31 22 6 13 17 9 10 5 8 8 3 6 10 7 8 0 6 10 9 6 6 5 9 5 8 4 7 11 8 9 8 9 5 3 1 9 8 2 3 4 6 6 5 4
31 16 10 3 15 13 14 14 14 7 10 9 6 11 6 5 7 6 12 15 12 10 10 6 5 0 1 3 10 6 6 6 10 3 3 6 7 8 4 4 4 6 5 5 4
3 6 7 5 11 12 15 16 6 5 9 6 8 7 10 8 6 5 10 6 7 8 1 8 5 1 3 3 2 6 10 4 3 5 4 5 6 8 6 9 8 8 8 6 4
4 6 0 1 9 12 16 11 5 2 5 7 7 7 7 10 8 9 10 3 8 8 5 6 6 1 4 7 9 3 3 4 5 6 7 2 9 9 17 18 19 10 8 8 6
2 4 1 8 13 8 10 9 6 6 2 4 4 4 7 9 7 8 15 11 10 15 16 6 7 5 9 1 1 1 7 8 7 9 1 3 10 1 7 12 14 11 8 6 6
2 3 5 4 7 8 2 4 4 5 6 5 4 1 2 7 6 9 7 4 7 14 18 11 5 4 6 4 2 6 4 2 5 4 8 7 12 4 4 11 11 14 10 7 7
2 3 3 2 2 6 6 6 5 1 5 4 5 3 4 5 2 11 7 1 5 7 7 15 4 13 16 11 9 8 8 8 8 4 11 11 15 3 6 11 10 10 10 10 8
3 2 1 5 4 6 4 5 10 7 1 4 3 6 7 5 4 5 6 4 3 3 5 7 8 6 3 4 4 7 10 13 13 25 10 25 11 12 17 19 19 12 12 12 10
3 3 2 2 8 7 5 5 10 4 8 10 4 8 4 5 7 8 7 6 6 1 4 1 4 4 3 2 5 3 7 19 26 25 16 2 14 7 10 8 11 16 15 15 12
1 1 2 3 4 6 6 7 7 7 3 3 8 8 9 7 3 3 2 4 8 9 5 8 7 4 10 6 6 5 26 14 13 16 21 20 27 8 5 14 19 20 18 16 14
Wind_Direction
192 190 199 203 206 193 191 199 191 171 204 169 173 159 156 135 336 43 225 218 176 209 142 181 102 130 83 86 75 127 65 144 185 159 186 153 164 40 334 117 242 166 153 192 133
184 188 199 195 200 188 189 195 191 176 199 180 163 152 132 104 130 232 241 209 208 170 128 182 161 142 78 86 18 87 102 207 176 187 176 175 164 165 134 137 214 183 114 100 145
183 177 188 188 192 192 183 196 181 180 182 179 158 155 135 136 87 246 272 183 172 175 154 148 125 127 88 103 214 143 163 176 184 183 144 148 127 157 123 264 217 198 169 152 163
185 175 177 182 182 180 191 187 170 174 186 172 165 180 142 273 187 289 163 149 156 151 126 127 105 78 111 132 149 101 122 152 165 142 135 151 123 160 179 224 323 223 159 160 174
187 176 165 175 178 177 187 181 171 164 185 169 163 189 142 148 244 177 126 138 128 157 159 138 123 126 140 136 113 107 168 106 92 86 94 125 120 182 242 226 20 106 154 180 178
181 176 171 177 169 168 179 181 179 154 186 181 165 174 207 206 153 143 133 149 153 129 158 142 168 163 99 117 116 112 93 98 61 91 63 131 109 320 272 330 182 157 196 191 195
179 176 168 169 171 162 168 171 169 156 185 176 164 151 136 231 146 154 139 181 187 151 151 168 140 92 128 116 154 108 91 65 47 356 65 338 274 224 258 14 198 200 213 211 207
173 173 168 171 170 155 156 156 146 157 168 170 146 112 225 331 163 132 122 84 144 92 112 120 97 97 82 120 36 80 59 109 343 142 347 125 259 240 324 198 249 227 224 238 224
173 170 170 168 162 150 149 143 155 156 150 155 109 137 257 79 187 184 144 142 116 45 57 77 67 90 65 93 51 14 156 170 328 254 116 144 255 199 47 70 230 260 246 246 260
173 169 160 166 157 141 138 133 136 113 104 117 50 89 245 216 164 132 11 118 114 121 71 50 62 82 49 100 196 158 134 183 203 188 56 139 264 276 259 277 257 273 275 261 262
172 166 156 156 150 146 134 122 97 44 151 182 190 185 167 201 75 45 185 80 85 54 132 354 111 178 178 158 140 130 119 153 228 121 155 238 271 267 276 288 272 261 255 267 266
169 160 156 153 156 159 143 171 184 169 161 199 352 256 198 165 101 254 143 110 109 135 132 57 189 197 127 127 111 114 119 218 66 73 136 30 277 264 251 247 230 260 286 286 303
162 160 157 154 157 156 177 198 94 156 119 180 197 190 192 146 159 200 144 137 137 138 172 143 186 148 134 144 134 146 151 185 156 79 66 328 298 300 293 260 312 55 351 22 11
162 157 151 145 156 168 187 202 339 255 98 198 211 247 148 150 178 120 193 138 63 147 128 167 131 129 114 168 123 166 199 138 125 95 227 21 275 296 282 293 319 28 46 40 31
162 159 154 153 133 182 160 118 252 31 164 169 175 66 164 157 147 237 169 43 151 154 124 219 152 138 155 189 158 206 125 130 104 102 81 315 44 268 319 281 176 114 74 60 45
166 161 154 153 121 174 140 136 89 75 231 182 142 168 138 134 87 108 130 52 132 94 46 135 323 140 161 68 122 151 85 55 62 89 288 212 172 264 214 209 145 132 98 81 67
166 164 162 157 165 153 140 89 95 203 218 185 176 175 159 157 117 133 161 156 150 110 151 67 219 141 129 86 23 102 106 47 9 3 223 324 185 248 241 214 170 164 137 92 64
162 161 168 161 149 154 150 134 172 190 202 119 127 122 190 143 101 146 134 183 242 112 137 149 215 166 187 172 167 188 160 157 187 195 220 64 231 250 216 60 80 114 122 101 81
155 158 165 195 163 165 154 181 206 180 158 139 80 146 201 222 135 150 186 198 190 181 151 142 224 324 79 158 149 201 207 143 103 17 74 209 282 289 140 127 125 139 132 124 98
95 113 140 185 181 169 170 198 195 176 128 144 152 160 177 178 148 170 161 190 194 178 167 199 115 349 157 124 22 179 152 88 3 138 232 259 272 234 199 195 176 176 167 157 139
38 91 284 223 152 163 188 203 172 200 113 133 166 145 175 169 158 192 198 220 180 164 129 143 106 337 132 213 161 128 176 70 119 159 169 206 253 216 195 188 184 174 167 161 145
89 118 325 171 148 185 190 184 138 146 123 125 111 115 157 159 154 186 203 219 175 155 187 171 121 163 200 147 52 15 180 160 150 217 229 145 261 47 195 169 161 165 160 149 139
73 98 39 67 147 169 195 150 136 144 160 143 129 179 188 157 166 201 180 215 152 173 173 178 190 82 7 354 12 209 189 107 93 71 192 138 256 9 139 151 161 157 161 152 145
97 114 88 64 269 130 132 182 144 67 128 126 118 112 129 143 341 193 172 127 176 193 140 158 132 201 203 214 131 189 188 182 160 148 218 224 240 214 168 167 169 165 157 159 159
21 83 352 157 153 126 107 129 176 181 153 160 139 199 160 140 116 176 147 133 46 173 143 152 195 178 213 121 153 180 176 180 192 221 187 237 223 203 193 184 184 160 159 160 164
117 135 16 53 134 112 120 171 179 135 192 211 221 175 175 154 184 181 147 172 171 141 152 167 178 119 271 110 158 194 215 202 210 222 232 122 251 156 176 115 155 170 171 173 168
170 14 92 335 121 130 168 157 161 134 346 3 219 168 192 183 95 45 39 115 144 149 155 161 143 120 240 133 93 293 223 199 217 214 211 222 239 155 152 176 177 183 180 171 167